Location: Barcelona
(41.3829°N, 2.1774°E)
Time: 21:09:00
(UTC+00:00)

ISS - Pass Details

Date: 11 July 2025
Orbit: 413 x 417 km, 51.6° (Epoch: 13 July)

Event Time Altitude Azimuth Distance (km) Brightness Sun altitude
Rises 03:12:53 0° 294° (WNW) 2,357 -0.2 -12.0°
Reaches altitude 10° 03:15:18 10° 277° (W) 1,491 -1.3 -11.7°
Maximum altitude 03:17:53 21° 227° (SW) 999 -2.5 -11.3°
Drops below altitude 10° 03:20:28 10° 176° (S) 1,484 -1.3 -11.0°
Sets 03:22:52 0° 160° (SSE) 2,342 -0.2 -10.6°
